TimeEDT,TemperatureF,Dew PointF,Humidity,Sea Level PressureIn,VisibilityMPH,Wind Direction,Wind SpeedMPH,Gust SpeedMPH,PrecipitationIn,Events,Conditions,WindDirDegrees,DateUTC
12:53 AM,77.0,73.0,88,29.92,10.0,Calm,Calm,-,N/A,,Clear,0,2012-09-30 04:53:00
1:53 AM,77.0,73.0,88,29.91,10.0,Calm,Calm,-,N/A,,Clear,0,2012-09-30 05:53:00
2:53 AM,75.9,73.0,91,29.90,10.0,SSE,3.5,-,N/A,,Clear,160,2012-09-30 06:53:00
3:53 AM,75.9,72.0,87,29.88,10.0,SSE,3.5,-,N/A,,Clear,150,2012-09-30 07:53:00
4:53 AM,75.0,72.0,90,29.87,10.0,Calm,Calm,-,N/A,,Clear,0,2012-09-30 08:53:00
5:53 AM,75.0,72.0,90,29.87,10.0,Calm,Calm,-,N/A,,Clear,0,2012-09-30 09:53:00
6:53 AM,73.9,71.1,91,29.88,10.0,Calm,Calm,-,N/A,,Clear,0,2012-09-30 10:53:00
7:53 AM,75.0,72.0,90,29.89,10.0,Calm,Calm,-,N/A,,Partly Cloudy,0,2012-09-30 11:53:00
8:53 AM,78.1,73.0,84,29.89,10.0,Calm,Calm,-,N/A,,Clear,0,2012-09-30 12:53:00
9:53 AM,80.1,73.0,79,29.89,10.0,SSE,4.6,-,N/A,,Clear,160,2012-09-30 13:53:00
10:53 AM,82.9,73.9,74,29.90,10.0,South,5.8,-,N/A,,Scattered Clouds,190,2012-09-30 14:53:00
11:53 AM,84.0,73.0,69,29.89,10.0,Variable,3.5,-,N/A,,Clear,0,2012-09-30 15:53:00
12:53 PM,86.0,72.0,63,29.88,10.0,SSE,8.1,-,N/A,,Clear,150,2012-09-30 16:53:00
1:53 PM,87.1,72.0,61,29.86,10.0,SSW,6.9,-,N/A,,Scattered Clouds,210,2012-09-30 17:53:00
2:53 PM,89.1,71.1,55,29.84,10.0,SSE,9.2,-,N/A,,Scattered Clouds,150,2012-09-30 18:53:00
3:53 PM,89.1,71.1,55,29.81,10.0,SW,8.1,-,N/A,,Clear,220,2012-09-30 19:53:00
4:53 PM,90.0,70.0,52,29.80,10.0,South,6.9,-,N/A,,Scattered Clouds,180,2012-09-30 20:53:00
5:53 PM,89.1,69.1,52,29.79,10.0,South,10.4,-,N/A,,Partly Cloudy,180,2012-09-30 21:53:00
6:53 PM,84.9,69.1,59,29.80,10.0,South,5.8,-,N/A,,Clear,190,2012-09-30 22:53:00
9:53 PM,82.0,71.1,69,29.85,10.0,Calm,Calm,-,N/A,,Mostly Cloudy,0,2012-10-01 01:53:00
10:53 PM,82.0,71.1,69,29.86,10.0,NNE,3.5,-,N/A,,Clear,20,2012-10-01 02:53:00
11:53 PM,80.1,72.0,76,29.85,10.0,NNE,4.6,-,N/A,,Partly Cloudy,20,2012-10-01 03:53:00